This demonstration page uses our WeatherBlox Daily Observations layout. Learn more.

Left ArrowRight Arrow

38.89511, -77.03637

Hourly Observations for March 12, 2021

Temp ( °F °C ) Dew Point ( °F °C ) Humidity (%) Winds ( mph kmh ) Pressure ( in mb ) Visibility ( mi km ) Precip ( " mm )
12:52 am 00:52 Cloudy 60 15.6 43 6.1 53 53 SSW 8 13 30.14 1021 10 16.0934 0 0
1:52 am 01:52 Mostly Cloudy 61 16.1 41 5 48 48 SW 8 13 30.14 1021 10 16.0934 0 0
2:52 am 02:52 Mostly Cloudy 61 16.1 42 5.6 50 50 Calm 30.14 1021 10 16.0934 0 0
3:52 am 03:52 Mostly Cloudy 56 13.3 44 6.7 65 65 S 7 11 30.13 1020 10 16.0934 0 0
4:52 am 04:52 Cloudy 57 13.9 44 6.7 62 62 S 5 7 30.14 1021 10 16.0934 0 0
5:52 am 05:52 Cloudy 58 14.4 44 6.7 60 60 Calm 30.15 1021 10 16.0934 0 0
6:52 am 06:52 Cloudy 58 14.4 44 6.7 60 60 SSW 3 6 30.16 1022 10 16.0934 0.001 0.001
7:52 am 07:52 Cloudy 60 15.6 47 8.3 62 62 Calm 30.19 1022 10 16.0934 0 0
8:52 am 08:52 Cloudy 61 16.1 45 7.2 56 56 ESE 5 7 30.19 1022 10 16.0934 0 0
9:52 am 09:52 Cloudy 62 16.7 45 7.2 54 54 S 6 9 30.19 1022 10 16.0934 0 0
10:52 am 10:52 Cloudy 67 19.4 50 10 55 55 WNW 8 13 30.19 1023 10 16.0934 0 0
11:52 am 11:52 Cloudy 65 18.3 53 11.7 66 66 NNW 13 20 30.19 1023 10 16.0934 0 0
12:52 pm 12:52 Cloudy 62 16.7 50 10 65 65 NNW 8 13 30.19 1022 10 16.0934 0 0
1:52 pm 13:52 Mostly Cloudy 64 17.8 49 9.4 58 58 W 5 7 30.16 1022 10 16.0934 0 0
2:52 pm 14:52 Mostly Cloudy 68 20 50 10 53 53 W 8 13 30.13 1020 10 16.0934 0 0
3:52 pm 15:52 Partly Cloudy 70 21.1 49 9.4 47 47 W 13 20 30.11 1020 10 16.0934 0 0
4:52 pm 16:52 Partly Cloudy 70 21.1 49 9.4 47 47 W 12 19 30.11 1020 10 16.0934 0 0
5:52 pm 17:52 Mostly Cloudy 69 20.6 49 9.4 49 49 W 6 9 30.11 1020 10 16.0934 0 0
6:52 pm 18:52 Partly Cloudy 67 19.4 29 -1.7 24 24 W 6 9 30.14 1021 10 16.0934 0 0
7:52 pm 19:52 Partly Cloudy 66 18.9 26 -3.3 22 22 NW 10 17 30.16 1021 10 16.0934 0 0
8:52 pm 20:52 Partly Cloudy 64 17.8 26 -3.3 24 24 NW 14 22 30.17 1022 10 16.0934 0 0
9:52 pm 21:52 Partly Cloudy 61 16.1 25 -3.9 25 25 WNW 12 19 30.18 1022 10 16.0934 0 0
10:52 pm 22:52 Cloudy 60 15.6 27 -2.8 28 28 WNW 13 20 30.19 1022 10 16.0934 0 0
11:52 pm 23:52 Cloudy 59 15 27 -2.8 29 29 WNW 5 7 30.19 1022 10 16.0934 0 0

Powered by AerisWeather